Overview Statistics Trail Chart Weather Telemetry Raw packets
 

This is the latest recevied weather packets stored in our database for station/object K7SKM. If no packets are shown the sender has not sent any weather packets the latest 10 day(s).

<< 27 28 29 30 31 32 33 >>
Time Temp. Humidity Pressure Rain* Wind** Luminosity Snow
1788490924 12.78° C 97% 1014.9 hPa 0 mm - 0 W/m² -
1788490620 12.78° C 97% 1014.8 hPa 0 mm - 0 W/m² -
1788490315 12.78° C 96% 1014.9 hPa 0 mm - 0 W/m² -
1788490010 12.78° C 96% 1014.9 hPa 1.78 mm - 0 W/m² -
1788489706 12.78° C 96% 1015.1 hPa 1.78 mm - 0 W/m² -
1788489402 12.78° C 96% 1014.9 hPa 0 mm - 0 W/m² -
1788489098 12.78° C 96% 1014.9 hPa 0 mm - 0 W/m² -
1788488797 12.78° C 96% 1014.9 hPa 0 mm - 0 W/m² -
1788488494 12.78° C 96% 1014.9 hPa 0 mm - 0 W/m² -
1788488190 12.78° C 96% 1015.1 hPa 0 mm - 1 W/m² -
1788487879 12.78° C 95% 1014.8 hPa 0 mm - 2 W/m² -
1788487575 12.78° C 95% 1014.9 hPa 0 mm - 3 W/m² -
1788487269 12.78° C 95% 1014.9 hPa 0 mm - 5 W/m² -
1788486964 12.78° C 94% 1014.9 hPa 1.78 mm - 6 W/m² -
1788486662 12.78° C 93% 1014.8 hPa 1.78 mm - 8 W/m² -
1788486356 12.78° C 93% 1014.8 hPa 1.78 mm - 9 W/m² -
1788486052 12.22° C 92% 1014.7 hPa 3.56 mm - 10 W/m² -
1788485749 12.22° C 91% 1014.7 hPa 5.33 mm - 10 W/m² -
1788485445 12.22° C 90% 1014.9 hPa 5.33 mm - 10 W/m² -
1788485145 12.22° C 90% 1014.9 hPa 3.56 mm - 10 W/m² -
1788484844 12.22° C 89% 1015 hPa 5.33 mm - 8 W/m² -
1788484538 12.78° C 89% 1014.9 hPa 5.33 mm - 6 W/m² -
1788484258 12.78° C 89% 1015 hPa 3.56 mm - 5 W/m² -
1788483930 12.78° C 88% 1014.9 hPa 5.33 mm - 5 W/m² -
1788483626 12.78° C 87% 1014.7 hPa 8.89 mm - 7 W/m² -

* Rain latest hour (hover to see other rain measurements)
** Current wind speed in m/s (hover to see current wind gust speed)